Weather reports worldwide

Advertisment
Ajaccio, France (7761): temperature & dewpoint: 18.01.2020 03:00:00 - 24.01.2020 03:00:00 (CET)Ajaccio, France (7761): temperature 5cm: 18.01.2020 03:00:00 - 24.01.2020 03:00:00 (CET)Ajaccio, France (7761): temperature -20cm & temperature -100cm: 18.01.2020 03:00:00 - 24.01.2020 03:00:00 (CET)Ajaccio, France (7761): wind speed & gusts: 18.01.2020 03:00:00 - 24.01.2020 03:00:00 (CET)Ajaccio, France (7761): wind direction: 18.01.2020 03:00:00 - 24.01.2020 03:00:00 (CET)Ajaccio, France (7761): reduced air pressure: 18.01.2020 03:00:00 - 24.01.2020 03:00:00 (CET)Ajaccio, France (7761): visibility: 18.01.2020 03:00:00 - 24.01.2020 03:00:00 (CET)Ajaccio, France (7761): sunshine duration: 18.01.2020 03:00:00 - 24.01.2020 03:00:00 (CET)Ajaccio, France (7761): precipitation: 18.01.2020 03:00:00 - 24.01.2020 03:00:00 (CET)
Date & Time tt [°C] td [°C] tt 5cm [°C] tt -20cm [°C] tt -100cm [°C] ff [km/h] ff [kn] fx [km/h] fx [kn] dd ppp [hPa] vv [km] sd [min] rr [mm]
24.01.2020 03:00:00 8,0 5,8 6,6 10,9 12,5 13 7 19 10 NE 1024,5 33 0 0,0
24.01.2020 02:00:00 8,3 5,9 6,8 10,9 12,5 12 7 20 11 NE 1024,7 33 0 0,0
24.01.2020 01:00:00 8,7 6,0 7,5 10,9 12,5 11 6 21 11 NE 1024,9 28 0 0,0
24.01.2020 00:00:00 8,4 5,7 7,6 11,0 12,5 14 7 21 11 NNE 1025,6 28 0 0,0
23.01.2020 23:00:00 9,0 6,1 7,9 11,0 12,5 13 7 19 11 NE 1025,9 24 0 0,0
23.01.2020 22:00:00 9,0 6,3 7,9 11,0 12,5 15 8 21 11 NE 1026,2 20 0 0,0
23.01.2020 21:00:00 9,0 6,3 7,8 11,0 12,5 11 6 17 9 NE 1026,1 17 0 0,0
23.01.2020 20:00:00 9,5 6,4 8,0 10,9 12,5 13 7 17 9 NE 1025,7 16 0 0,0
23.01.2020 19:00:00 11,1 7,0 9,0 10,8 12,5 10 5 17 9 NE 1025,5 18 0 0,0
23.01.2020 18:00:00 12,6 7,7 8,8 10,7 12,5 6 4 8 5 NE 1025,1 17 - 0,0
23.01.2020 17:00:00 15,1 7,6 11,9 10,6 12,5 3 2 17 9 SSE 1024,8 42 0 0,0
23.01.2020 16:00:00 16,3 9,5 15,6 10,5 12,5 12 6 21 11 WSW 1024,8 49 49 0,0
23.01.2020 15:00:00 17,3 10,2 19,1 10,4 12,5 13 7 24 13 WSW 1024,7 45 60 0,0
23.01.2020 14:00:00 17,5 9,4 21,6 10,4 12,5 12 6 23 12 WSW 1024,7 42 60 0,0
23.01.2020 13:00:00 17,0 10,4 22,1 10,4 12,5 12 6 16 9 WSW 1025,1 50 60 0,0
23.01.2020 12:00:00 17,4 7,2 21,9 10,4 12,5 9 5 15 8 WSW 1025,9 36 60 0,0
23.01.2020 11:00:00 15,3 6,3 15,9 10,5 12,5 11 6 20 11 NNE 1026,4 34 60 0,0
23.01.2020 10:00:00 11,0 5,9 10,3 10,5 12,5 14 8 23 12 NE 1026,7 20 60 0,0
23.01.2020 09:00:00 7,8 4,0 3,9 10,6 12,5 12 7 22 12 NE 1027,1 26 37 0,0
23.01.2020 08:00:00 5,2 2,7 4,0 10,7 12,5 10 6 19 11 NE 1026,6 30 0 0,0
23.01.2020 07:00:00 6,0 3,3 4,3 10,7 12,5 14 8 22 12 NE 1026,3 33 0 0,0
23.01.2020 06:00:00 6,3 4,0 3,9 10,8 12,5 13 7 23 12 NNE 1026,5 36 0 0,0
23.01.2020 05:00:00 6,0 4,0 4,3 10,8 12,5 13 7 22 12 NE 1026,1 31 0 0,0
23.01.2020 04:00:00 6,2 4,2 4,8 10,9 12,5 13 7 22 12 NE 1025,9 26 0 0,0
23.01.2020 03:00:00 6,4 4,7 4,4 10,9 12,5 14 7 20 11 NNE 1025,7 20 0 0,0
23.01.2020 02:00:00 7,0 4,6 5,0 10,9 12,5 6 3 23 13 NNE 1025,5 17 0 0,0
23.01.2020 01:00:00 7,4 5,2 5,4 10,9 12,5 14 8 22 12 NNE 1025,2 20 0 0,0
23.01.2020 00:00:00 7,9 5,2 6,6 10,9 12,5 10 6 19 10 NE 1026,3 19 0 0,0
22.01.2020 23:00:00 8,5 5,8 6,9 11,0 12,5 13 7 20 11 NE 1026,2 18 0 0,0
22.01.2020 22:00:00 9,2 5,9 7,4 10,9 12,5 12 7 17 9 NE 1026,4 15 0 0,0
22.01.2020 21:00:00 10,0 6,7 8,4 10,9 12,5 10 6 15 8 NE 1026,1 15 0 0,0
22.01.2020 20:00:00 11,0 7,1 9,4 10,8 12,5 10 5 16 9 NE 1026,4 16 0 0,0
22.01.2020 19:00:00 12,2 7,5 10,7 10,8 12,5 10 6 14 8 NE 1026,6 20 0 0,0
22.01.2020 18:00:00 14,7 6,5 12,0 10,7 12,5 4 2 14 8 NE 1026,5 28 0 0,0
22.01.2020 17:00:00 15,5 8,0 14,2 10,5 12,5 8 4 15 8 S 1026,4 39 0 0,0
22.01.2020 16:00:00 18,1 6,0 17,1 10,4 12,5 5 3 16 8 WSW 1026,2 50 46 0,0
22.01.2020 15:00:00 19,0 8,9 20,0 10,3 12,5 10 6 26 14 WSW 1026,3 52 60 0,0
22.01.2020 14:00:00 18,6 8,3 21,5 10,3 12,5 14 7 29 16 WSW 1026,7 51 60 0,0
22.01.2020 13:00:00 19,2 8,2 21,8 10,3 12,5 7 4 23 13 ENE 1027,6 20 60 0,0
22.01.2020 12:00:00 20,0 7,4 23,0 10,3 12,5 8 4 15 8 E 1028,7 33 60 0,0
22.01.2020 11:00:00 16,8 8,2 16,9 10,3 12,5 5 3 16 9 ENE 1029,2 20 60 0,0
22.01.2020 10:00:00 12,3 6,6 9,7 10,3 12,5 9 5 20 11 NE 1029,4 19 34 0,0
22.01.2020 09:00:00 8,7 4,9 5,3 10,4 12,5 10 5 15 8 NNE 1029,6 20 19 0,0
22.01.2020 08:00:00 7,6 4,5 4,4 10,4 12,5 3 2 14 8 NNE 1029,2 36 0 0,0
22.01.2020 07:00:00 7,7 4,6 5,9 10,4 12,5 10 5 18 10 NNE 1029,2 39 0 0,0
22.01.2020 06:00:00 7,8 4,7 6,3 10,5 12,5 8 4 19 10 NE 1029,5 42 0 0,0
22.01.2020 05:00:00 8,2 4,8 6,8 10,5 12,5 12 7 21 11 NNE 1030,0 50 0 0,0
22.01.2020 04:00:00 8,6 4,8 6,6 10,5 12,5 13 7 23 12 ENE 1030,5 42 0 0,0
22.01.2020 03:00:00 8,9 5,1 7,0 10,5 12,5 12 7 17 9 ENE 1031,1 41 0 0,0
22.01.2020 02:00:00 10,3 5,3 8,2 10,5 12,5 12 7 21 12 NE 1031,0 53 0 0,0
22.01.2020 01:00:00 11,4 5,3 7,9 10,5 12,5 11 6 22 12 NNE 1031,2 56 0 0,0
22.01.2020 00:00:00 12,3 5,2 10,0 10,5 12,5 8 4 22 12 NNE 1031,4 47 0 0,0
21.01.2020 23:00:00 12,6 5,3 10,4 10,4 12,5 10 6 29 15 NNE 1031,3 41 0 0,0
21.01.2020 22:00:00 12,8 5,2 10,6 10,4 12,5 9 5 30 16 NE 1031,2 41 0 0,0
21.01.2020 21:00:00 13,8 5,2 9,9 10,4 12,5 13 7 33 18 ENE 1031,4 49 0 0,0
21.01.2020 20:00:00 12,8 5,2 10,1 10,3 12,5 9 5 24 13 ENE 1031,2 32 0 0,0
21.01.2020 19:00:00 12,8 5,7 9,6 10,3 12,5 11 6 22 12 SW 1030,5 22 0 0,0
21.01.2020 18:00:00 12,4 7,1 9,7 10,2 12,6 9 5 14 8 SSE 1030,6 16 0 0,0
21.01.2020 17:00:00 14,3 5,6 13,0 10,1 12,5 9 5 20 11 NNE 1030,2 25 0 0,0
21.01.2020 16:00:00 15,1 5,0 14,6 10,0 12,5 3 2 19 10 NNE 1031,2 43 0 0,0
21.01.2020 15:00:00 15,3 6,8 15,5 10,0 12,5 12 6 26 14 WNW 1031,5 50 0 0,0
21.01.2020 14:00:00 15,5 6,2 16,4 10,0 12,6 10 5 16 9 WNW 1031,8 58 0 0,0
21.01.2020 13:00:00 16,2 6,3 17,5 10,0 12,5 7 4 14 7 WNW 1032,5 54 0 0,0
21.01.2020 12:00:00 14,6 7,6 15,5 10,0 12,5 9 5 14 8 W 1032,7 36 0 0,0
21.01.2020 11:00:00 13,7 4,8 12,4 10,0 12,5 4 2 14 8 E 1033,1 29 0 0,0
21.01.2020 10:00:00 11,1 5,2 7,9 10,0 12,6 6 3 16 9 SSE 1032,9 25 0 0,0
21.01.2020 09:00:00 7,6 4,0 5,1 10,1 12,6 5 3 11 6 E 1033,1 57 0 0,0
21.01.2020 08:00:00 7,2 3,2 3,8 10,1 12,6 7 4 13 7 ESE 1033,1 60 0 0,0
21.01.2020 07:00:00 7,2 2,9 4,0 10,1 12,6 3 2 14 8 ENE 1032,9 60 0 0,0
21.01.2020 06:00:00 7,5 3,0 4,9 10,1 12,6 7 4 18 10 E 1032,5 60 0 0,0
21.01.2020 05:00:00 9,2 3,2 6,8 10,1 12,6 3 2 18 10 NNE 1032,3 60 0 0,0
21.01.2020 04:00:00 11,7 2,4 8,4 10,1 12,6 6 3 23 12 N 1032,5 60 0 0,0
21.01.2020 03:00:00 10,0 3,0 7,9 10,1 12,6 5 3 13 7 N 1032,9 60 0 0,0
21.01.2020 02:00:00 11,2 2,7 9,6 10,1 12,6 5 3 13 7 N 1032,9 60 0 0,0
21.01.2020 01:00:00 12,4 2,0 10,2 10,1 12,6 8 5 24 13 NNE 1032,8 60 0 0,0
21.01.2020 00:00:00 12,0 2,2 9,8 10,0 12,6 4 2 23 13 NE 1033,1 58 0 0,0
20.01.2020 23:00:00 11,9 2,6 10,0 10,0 12,6 2 1 36 19 W 1032,8 60 0 0,0
20.01.2020 22:00:00 12,7 2,0 11,4 10,0 12,6 19 10 35 19 N 1032,4 60 0 0,0
20.01.2020 21:00:00 12,6 2,2 11,3 10,0 12,6 19 10 35 19 NNE 1031,7 60 0 0,0
20.01.2020 20:00:00 12,5 2,3 10,2 10,0 12,6 8 5 17 9 NNE 1031,2 60 0 0,0
20.01.2020 19:00:00 11,9 2,3 10,7 10,0 12,6 12 7 29 16 NNE 1030,5 60 0 0,0
20.01.2020 18:00:00 11,7 2,4 9,6 10,0 12,6 13 7 26 14 N 1030,5 60 0 0,0
20.01.2020 17:00:00 11,4 2,4 9,7 10,0 12,6 5 3 12 6 SSW 1030,4 60 0 0,0
20.01.2020 16:00:00 12,0 2,2 10,7 9,9 12,6 4 2 24 13 W 1030,0 60 0 0,0
20.01.2020 15:00:00 12,0 1,9 11,3 9,9 12,6 10 6 26 14 NNE 1029,8 60 0 0,0
20.01.2020 14:00:00 12,1 2,0 11,5 9,9 12,6 11 6 30 16 NNE 1029,9 60 0 0,0
20.01.2020 13:00:00 12,0 2,4 11,4 9,9 12,6 15 8 30 16 N 1029,8 58 0 0,0
20.01.2020 12:00:00 12,3 2,2 11,5 9,9 12,6 9 5 18 10 NE 1029,7 57 0 0,0
20.01.2020 11:00:00 12,0 2,7 9,6 9,9 12,6 8 4 16 9 ENE 1029,1 30 0 0,0
20.01.2020 10:00:00 10,0 4,1 9,5 10,0 12,6 4 2 21 11 ESE 1028,5 22 0 0,0
20.01.2020 09:00:00 11,5 2,5 9,6 10,0 12,6 11 6 26 14 NNE 1027,3 60 0 0,0
20.01.2020 08:00:00 10,8 2,6 8,7 10,0 12,6 6 4 20 11 NNE 1026,8 60 0 0,0
20.01.2020 07:00:00 10,2 2,3 7,6 10,1 12,6 10 6 21 12 NNE 1026,7 60 0 0,0
20.01.2020 06:00:00 9,9 2,7 8,1 10,1 12,6 14 7 20 11 N 1026,4 60 0 0,0
20.01.2020 05:00:00 9,1 3,3 5,7 10,1 12,6 10 5 17 9 NNE 1026,1 60 0 0,0
20.01.2020 04:00:00 7,1 3,7 5,3 10,1 12,6 6 3 13 7 E 1026,0 57 0 0,0
20.01.2020 03:00:00 6,7 3,7 5,0 10,2 12,6 3 1 15 8 ESE 1025,7 54 0 0,0
20.01.2020 02:00:00 7,2 3,6 5,5 10,2 12,6 8 5 15 8 NE 1025,4 47 0 0,0
20.01.2020 01:00:00 6,8 3,4 5,6 10,2 12,6 5 3 17 9 ENE 1025,3 38 0 0,0
20.01.2020 00:00:00 7,0 3,2 5,5 10,3 12,6 12 7 17 9 NE 1025,2 33 0 0,0
19.01.2020 23:00:00 6,5 3,3 4,3 10,3 12,6 9 5 14 8 NE 1024,8 30 0 0,0
19.01.2020 22:00:00 6,0 3,0 3,6 10,3 12,6 7 4 15 8 NE 1023,8 26 0 0,0
19.01.2020 21:00:00 7,0 3,2 4,4 10,3 12,6 3 2 16 8 NE 1023,2 27 0 0,0
19.01.2020 20:00:00 7,7 3,4 4,1 10,2 12,6 5 3 13 7 E 1023,0 41 0 0,0
19.01.2020 19:00:00 8,4 3,6 4,9 10,2 12,6 4 2 12 7 ESE 1022,5 19 0 0,0
19.01.2020 18:00:00 11,0 4,2 8,6 10,1 12,6 5 3 10 6 ENE 1022,3 21 0 0,0
19.01.2020 17:00:00 12,0 4,7 10,1 10,0 12,6 5 3 8 5 N 1022,4 53 0 0,0
19.01.2020 16:00:00 13,3 3,9 12,8 10,0 12,6 5 3 12 6 E 1022,0 60 0 0,0
19.01.2020 15:00:00 13,8 2,7 14,3 9,9 12,6 3 1 13 7 W 1021,4 60 22 0,0
19.01.2020 14:00:00 14,5 4,2 16,3 9,9 12,6 10 5 17 9 S 1021,2 55 36 0,0
19.01.2020 13:00:00 13,5 2,4 16,4 10,0 12,6 13 7 19 11 SW 1021,3 55 15 0,0
19.01.2020 12:00:00 14,1 3,2 15,6 10,0 12,6 5 3 14 7 SSW 1021,6 47 60 0,0
19.01.2020 11:00:00 9,4 2,9 10,0 10,1 12,6 12 6 20 11 NNE 1021,9 59 60 0,0
19.01.2020 10:00:00 5,8 0,9 3,0 10,2 12,6 12 6 22 12 NE 1022,2 60 7 0,0
19.01.2020 09:00:00 3,3 0,2 1,7 10,3 12,6 14 8 21 12 NE 1022,2 60 22 0,0
19.01.2020 08:00:00 2,8 -0,5 1,4 10,4 12,6 11 6 23 12 NE 1021,9 60 0 0,0
19.01.2020 07:00:00 3,7 -0,3 2,1 10,5 12,6 16 9 27 14 NNE 1021,6 60 0 0,0
19.01.2020 06:00:00 3,4 -0,1 1,8 10,5 12,6 15 8 28 15 NNE 1021,8 60 0 0,0
19.01.2020 05:00:00 3,3 0,2 2,0 10,6 12,6 19 10 27 15 NNE 1022,2 60 0 0,0
19.01.2020 04:00:00 3,4 0,4 1,9 10,7 12,6 13 7 26 14 NNE 1022,7 60 0 0,0
19.01.2020 03:00:00 3,9 0,6 2,3 10,7 12,6 13 7 25 13 NNE 1023,1 60 0 0,0
19.01.2020 02:00:00 3,8 1,2 2,4 10,8 12,6 16 9 25 13 NNE 1023,3 57 0 0,0
19.01.2020 01:00:00 3,9 1,4 2,8 10,9 12,6 13 7 23 13 NE 1023,5 51 0 0,0
19.01.2020 00:00:00 4,6 2,0 3,2 10,9 12,6 14 8 21 12 NNE 1023,7 45 0 0,0
18.01.2020 23:00:00 5,0 2,5 3,5 10,9 12,6 10 6 19 10 NNE 1023,9 44 0 0,0
18.01.2020 22:00:00 6,1 3,3 4,5 11,0 12,6 11 6 23 13 NNE 1023,9 43 0 0,0
18.01.2020 21:00:00 7,2 4,0 5,8 10,9 12,5 11 6 20 11 NE 1024,1 42 0 0,0
18.01.2020 20:00:00 8,7 4,9 7,1 10,9 12,6 10 5 19 10 NNE 1024,1 36 0 0,0
18.01.2020 19:00:00 9,6 5,4 7,7 10,9 12,5 9 5 17 9 NE 1024,2 28 0 0,0
18.01.2020 18:00:00 10,1 5,5 8,4 10,9 12,5 9 5 16 8 E 1024,2 24 0 0,0
18.01.2020 17:00:00 11,4 4,1 9,9 10,9 12,5 5 3 22 12 WNW 1024,1 40 0 0,0
18.01.2020 16:00:00 11,7 4,9 11,0 10,8 12,5 15 8 27 15 W 1024,2 20 9 0,0
18.01.2020 15:00:00 12,4 5,5 12,5 10,8 12,5 16 9 24 13 WSW 1024,2 19 27 0,0
18.01.2020 14:00:00 12,9 5,8 13,4 10,8 12,6 16 8 24 13 W 1024,1 19 28 0,0
18.01.2020 13:00:00 13,0 4,9 13,2 10,8 12,5 16 9 33 18 WNW 1024,5 20 32 0,0
18.01.2020 12:00:00 12,9 5,1 11,8 10,8 12,5 18 10 34 18 NW 1025,2 43 11 0,0
18.01.2020 11:00:00 12,2 5,1 11,7 10,8 12,5 22 12 35 19 NW 1025,5 44 9 0,0
18.01.2020 10:00:00 12,3 5,5 10,9 10,8 12,5 19 11 34 18 WNW 1024,7 30 0 0,0
18.01.2020 09:00:00 11,7 6,2 9,1 10,8 12,5 10 5 22 12 NNW 1024,5 20 0 0,0
18.01.2020 08:00:00 11,3 6,0 9,4 10,8 12,5 6 4 20 11 SW 1024,1 36 0 0,0
18.01.2020 07:00:00 11,9 4,6 10,0 10,8 12,5 5 3 22 12 NW 1023,9 45 0 0,0
18.01.2020 06:00:00 12,2 5,1 9,7 10,8 12,5 11 6 35 19 WNW 1023,4 19 0 0,0
18.01.2020 05:00:00 12,3 5,5 9,7 10,8 12,5 12 7 31 17 WNW 1023,6 19 0 0,0
18.01.2020 04:00:00 12,5 6,7 9,6 10,9 12,5 19 11 29 15 W 1023,4 17 0 0,0
18.01.2020 03:00:00 12,1 7,0 9,6 10,8 12,5 11 6 35 19 WNW 1024,3 19 0 0,0

tt = temperature
td = dewpoint
tt 5cm = temperature 5cm
tt -20cm = temperature -20cm
tt -100cm = temperature -100cm
ff = wind speed
fx = gusts
dd = wind direction
ppp = reduced air pressure
vv = visibility
sd = sunshine duration
rr = precipitation

Next stations